Miscellaneous Local Product
Issued by NWS North Platte, NE

Home | Current Version | Previous Version | Graphics & Text | Print | Product List | Glossary Off
Versions: 1 2 3 4 5 6 7 8 9 10 11 12 13 14 15 16 17 18 19 20 21 22 23 24 25 26 27 28 29 30 31 32 33 34 35 36 37 38 39 40 41 42 43 44 45 46 47 48 49 50

000
AXUS43 KLBF 091810
MISLBF


WESTERN AND NORTH CENTRAL NEBRASKA HOURLY WEATHER ROUNDUP
NATIONAL WEATHER SERVICE NORTH PLATTE NE
1200 PM CST FRI DEC 09 2016

NOTE: "FAIR" INDICATES FEW OR NO CLOUDS BELOW 12,000 FEET WITH NO
SIGNIFICANT WEATHER AND/OR OBSTRUCTIONS TO VISIBILITY.

NOTE: STATIONS NOT REPORTING VARIABLES SUCH AS SKY/WEATHER OR
PRESSURE ARE PROVIDED BY RAWS AND APRS NETWORKS AND ARE NOT UNDER
NATIONAL WEATHER SERVICE QUALITY CONTROL.

...OBSERVATIONS IN AND NEAR THE EASTERN PANHANDLE OF NEBRASKA...

CITY           SKY/WX    TMP DP  RH WIND       PRES   REMARKS
PINE RIDGE     CLOUDY     5   1  83 NW7       30.30S WCI  -7
CHADRON        CLOUDY     6  -2  69 N5        30.32S WCI  -3
ALLIANCE       SUNNY     21   8  57 CALM      30.18R
SIDNEY         SUNNY     22  11  62 W6        30.15S WCI  14
CRESCENT LAKE    N/A     20   8  58 S5G13       N/A  WCI  14
$$

...OBSERVATIONS IN NORTHERN NEBRASKA AND FAR SOUTHERN SOUTH DAKOTA...

CITY           SKY/WX    TMP DP  RH WIND       PRES   REMARKS
WINNER         LGT SNOW  11   6  81 E13       30.43F WCI  -4
VALENTINE      CLOUDY    15   7  70 SE14      30.34F WCI   0
THEDFORD       CLOUDY    22   8  54 S15G21    30.28F WCI   8
AINSWORTH      CLOUDY    16   7  68 SE10      30.34F WCI   3
O`NEILL        FLURRIES  15   8  74 SE9       30.44F WCI   3
BROKEN BOW     CLOUDY    18   9  68 S14G23    30.34F WCI   4
VALENTINE NWR    N/A     13   5  70 SE13        N/A  WCI  -1
BUTTE            N/A      8   5  87 NE8         N/A  WCI  -4
HALSEY           N/A     17   2  52 SE9G16      N/A  WCI   6
CHAMBERS         N/A     18   6  58 S3          N/A
EWING            N/A     14   9  81 SE3         N/A
$$

...OBSERVATIONS IN SOUTHWEST NEBRASKA AND FAR NORTHEAST COLORADO...

CITY           SKY/WX    TMP DP  RH WIND       PRES   REMARKS
WRAY           FAIR      25  14  63 SW12      30.21  WCI  14
HOLYOKE        FAIR      27  14  59 S7        30.20F WCI  19
IMPERIAL       CLOUDY    21  12  68 S12       30.24F WCI   9
OGALLALA       SUNNY     24  13  64 S13G18    30.23F WCI  12
NORTH PLATTE   PTSUNNY   22   9  57 S15       30.29F WCI   9
MCCOOK         CLOUDY    24  12  60 S12       30.32F WCI  13
LEXINGTON      CLOUDY    22  10  59 S15       30.35F WCI   9
STAPLETON        N/A     20   8  60 CALM        N/A
GOTHENBURG       N/A     18   8  65 S12         N/A  WCI   6
CALLAWAY         N/A     20  10  65 S18         N/A  WCI   5
$$

...OBSERVATIONS IN CENTRAL LINCOLN COUNTY AREA...

CITY           SKY/WX    TMP DP  RH WIND       PRES   REMARKS
N.P. AIRPORT   PTSUNNY   22   9  57 S15       30.29F WCI   9
N.P. DOWNTOWN    N/A     19  11  69 S6G15       N/A  WCI  11
N.P. SOUTHEAST   N/A     18  10  69 S10G17      N/A  WCI   6
N.P. HILLCREST   N/A     20  11  67 S14         N/A  WCI   7
$$

...SOME OBSERVATIONS FROM AROUND THE REGION...

CITY           SKY/WX    TMP DP  RH WIND       PRES   REMARKS
LARAMIE        CLOUDY    34  22  61 W22       30.09S WCI  22
CHEYENNE       SUNNY     42  25  50 W15G25    30.05F
DENVER         MOSUNNY   49  25  39 VRB7      30.09S
AKRON          SUNNY     19   9  65 W5        30.12F WCI  12
SCOTTSBLUFF    SUNNY     23   9  55 N6        30.18S WCI  16
RAPID CITY     FLURRIES   1  -4  79 N10       30.35S WCI -15
BISMARCK       CLOUDY     0  -7  72 NW9       30.58S WCI -15
PIERRE         FLURRIES   5  -1  76 E8        30.51R WCI  -8
SIOUX FALLS    CLOUDY    11   4  73 VRB3      30.53F
OMAHA          CLOUDY    18   8  65 S6        30.59F WCI  10
GRAND ISLAND   CLOUDY    18  10  71 SE10      30.46F WCI   6
KANSAS CITY    CLOUDY    22  11  62 S5        30.61F WCI  16
WICHITA        CLOUDY    26  12  55 S16       30.54F WCI  14
OKLAHOMA CITY  CLOUDY    28  11  48 SE10      30.56F WCI  19
DALLAS         CLOUDY    35  13  40 CALM      30.62F
AMARILLO       CLOUDY    33  25  72 S25       30.29F WCI  20
DODGE CITY     CLOUDY    27  12  53 S18       30.37F WCI  14
HAYS           CLOUDY    25  11  55 S18       30.41F WCI  11
GOODLAND       SUNNY     27  17  66 S22G28    30.19F WCI  13
$$




USA.gov is the U.S. government's official web portal to all federal, state and local government web resources and services.